TimeEST,TemperatureF,Dew PointF,Humidity,Sea Level PressureIn,VisibilityMPH,Wind Direction,Wind SpeedMPH,Gust SpeedMPH,PrecipitationIn,Events,Conditions,WindDirDegrees,DateUTC
12:15 AM,30.2,26.6,86,29.87,10.0,Calm,Calm,-,N/A,,Clear,0,2013-02-20 05:15:00
12:35 AM,28.4,26.6,93,29.86,10.0,WNW,5.8,-,N/A,,Clear,300,2013-02-20 05:35:00
12:55 AM,28.4,26.6,93,29.87,10.0,WNW,8.1,-,N/A,,Clear,290,2013-02-20 05:55:00
1:15 AM,32.0,26.6,80,29.88,10.0,WNW,6.9,-,N/A,,Clear,290,2013-02-20 06:15:00
1:35 AM,33.8,28.4,81,29.88,10.0,WNW,5.8,-,N/A,,Clear,290,2013-02-20 06:35:00
1:55 AM,32.0,26.6,80,29.88,10.0,NW,9.2,-,N/A,,Clear,310,2013-02-20 06:55:00
2:15 AM,30.2,26.6,86,29.88,10.0,NW,6.9,-,N/A,,Clear,320,2013-02-20 07:15:00
2:35 AM,28.4,24.8,86,29.89,10.0,Calm,Calm,-,N/A,,Clear,0,2013-02-20 07:35:00
2:55 AM,30.2,24.8,80,29.89,10.0,Calm,Calm,-,N/A,,Partly Cloudy,0,2013-02-20 07:55:00
3:15 AM,28.4,26.6,93,29.89,10.0,NW,3.5,-,N/A,,Scattered Clouds,320,2013-02-20 08:15:00
3:35 AM,30.2,26.6,86,29.90,10.0,NNW,5.8,-,N/A,,Mostly Cloudy,340,2013-02-20 08:35:00
3:55 AM,32.0,28.4,87,29.91,10.0,NW,5.8,17.3,N/A,,Scattered Clouds,320,2013-02-20 08:55:00
4:15 AM,32.0,28.4,87,29.91,10.0,NNE,5.8,-,N/A,,Clear,20,2013-02-20 09:15:00
4:35 AM,32.0,30.2,93,29.92,10.0,NNE,3.5,-,N/A,,Mostly Cloudy,20,2013-02-20 09:35:00
4:55 AM,32.0,28.4,87,29.93,10.0,Calm,Calm,-,N/A,,Overcast,0,2013-02-20 09:55:00
5:15 AM,32.0,26.6,80,29.94,10.0,NW,4.6,-,N/A,,Overcast,320,2013-02-20 10:15:00
5:35 AM,32.0,26.6,80,29.94,10.0,NW,8.1,-,N/A,,Overcast,310,2013-02-20 10:35:00
5:55 AM,32.0,26.6,80,29.95,10.0,NNW,10.4,-,N/A,,Overcast,330,2013-02-20 10:55:00
6:15 AM,33.8,23.0,65,29.96,10.0,NW,12.7,19.6,N/A,,Mostly Cloudy,320,2013-02-20 11:15:00
6:35 AM,32.0,19.4,60,29.97,10.0,NW,10.4,-,N/A,,Mostly Cloudy,320,2013-02-20 11:35:00
6:55 AM,32.0,19.4,60,29.98,10.0,NW,15.0,18.4,N/A,,Mostly Cloudy,320,2013-02-20 11:55:00
7:15 AM,30.2,19.4,64,29.99,10.0,NW,12.7,18.4,N/A,,Scattered Clouds,320,2013-02-20 12:15:00
7:35 AM,32.0,19.4,60,30.00,10.0,NNW,9.2,-,N/A,,Partly Cloudy,330,2013-02-20 12:35:00
7:55 AM,32.0,17.6,55,30.01,10.0,NNW,8.1,-,N/A,,Clear,330,2013-02-20 12:55:00
8:15 AM,33.8,17.6,52,30.02,10.0,NNW,11.5,-,N/A,,Clear,340,2013-02-20 13:15:00
8:35 AM,33.8,17.6,52,30.02,10.0,NNW,10.4,18.4,N/A,,Clear,330,2013-02-20 13:35:00
8:50 AM,33.8,17.6,52,30.03,10.0,NNW,11.5,17.3,N/A,,Scattered Clouds,330,2013-02-20 13:50:00
8:55 AM,33.8,17.6,52,30.03,10.0,NNW,13.8,19.6,N/A,,Scattered Clouds,330,2013-02-20 13:55:00
9:50 AM,35.6,15.8,44,30.03,10.0,NNW,15.0,25.3,N/A,,Partly Cloudy,330,2013-02-20 14:50:00
10:50 AM,37.4,15.8,41,30.04,10.0,NW,16.1,20.7,N/A,,Scattered Clouds,320,2013-02-20 15:50:00
11:50 AM,39.2,15.8,39,30.04,10.0,WNW,16.1,20.7,N/A,,Clear,290,2013-02-20 16:50:00
12:45 PM,39.2,17.6,42,30.00,10.0,NNW,16.1,20.7,N/A,,Scattered Clouds,330,2013-02-20 17:45:00
3:45 PM,41.0,15.8,36,30.01,10.0,NW,16.1,21.9,N/A,,Clear,320,2013-02-20 20:45:00
4:59 PM,37.4,15.8,41,30.05,10.0,North,20.7,24.2,N/A,,Clear,350,2013-02-20 21:59:00
5:15 PM,35.6,15.8,44,30.05,10.0,NW,18.4,23.0,N/A,,Clear,320,2013-02-20 22:15:00
5:35 PM,35.6,15.8,44,30.07,10.0,NW,18.4,25.3,N/A,,Clear,320,2013-02-20 22:35:00
5:55 PM,33.8,15.8,48,30.07,10.0,NNW,19.6,26.5,N/A,,Clear,330,2013-02-20 22:55:00
6:15 PM,32.0,15.8,51,30.09,10.0,NNW,15.0,19.6,N/A,,Clear,340,2013-02-20 23:15:00
6:35 PM,30.2,17.6,60,30.12,10.0,North,16.1,20.7,N/A,,Clear,350,2013-02-20 23:35:00
6:55 PM,30.2,17.6,60,30.12,10.0,NNW,17.3,23.0,N/A,,Clear,330,2013-02-20 23:55:00
7:15 PM,30.2,17.6,60,30.14,10.0,NNW,12.7,20.7,N/A,,Clear,340,2013-02-21 00:15:00
7:35 PM,28.4,17.6,64,30.14,10.0,NNW,12.7,16.1,N/A,,Clear,340,2013-02-21 00:35:00
7:45 PM,28.4,17.6,64,30.14,10.0,North,16.1,20.7,N/A,,Clear,350,2013-02-21 00:45:00
7:55 PM,28.4,15.8,59,30.15,10.0,NNW,11.5,21.9,N/A,,Clear,340,2013-02-21 00:55:00
8:15 PM,28.4,15.8,59,30.15,10.0,NNW,15.0,20.7,N/A,,Clear,330,2013-02-21 01:15:00
8:35 PM,28.4,15.8,59,30.15,10.0,NNW,15.0,20.7,N/A,,Clear,340,2013-02-21 01:35:00
8:45 PM,28.4,15.8,59,30.16,10.0,North,16.1,20.7,N/A,,Clear,360,2013-02-21 01:45:00
8:55 PM,26.6,15.8,64,30.15,10.0,NW,16.1,-,N/A,,Clear,320,2013-02-21 01:55:00
9:15 PM,26.6,14.0,59,30.18,10.0,North,6.9,-,N/A,,Clear,350,2013-02-21 02:15:00
9:35 PM,26.6,14.0,59,30.16,10.0,NNW,13.8,-,N/A,,Clear,330,2013-02-21 02:35:00
9:55 PM,26.6,12.2,55,30.18,10.0,North,3.5,-,N/A,,Clear,360,2013-02-21 02:55:00
10:15 PM,26.6,12.2,55,30.18,10.0,NNE,8.1,-,N/A,,Clear,20,2013-02-21 03:15:00
10:35 PM,24.8,14.0,64,30.17,10.0,NW,6.9,-,N/A,,Clear,320,2013-02-21 03:35:00
10:55 PM,24.8,14.0,64,30.17,10.0,NW,15.0,-,N/A,,Clear,320,2013-02-21 03:55:00
11:15 PM,26.6,12.2,55,30.17,10.0,NNW,15.0,20.7,N/A,,Clear,330,2013-02-21 04:15:00
11:35 PM,26.6,12.2,55,30.17,10.0,NW,12.7,-,N/A,,Clear,320,2013-02-21 04:35:00
11:55 PM,24.8,12.2,59,30.15,10.0,NNW,17.3,-,N/A,,Clear,330,2013-02-21 04:55:00